Tracking 23764 objects as of 18-Oct-2021
HD Live streaming from Space Station
objects crossing your sky now

CSO-1

Track CSO-1 now!
10-day predictions


NORAD ID: 43866
Int'l Code: 2018-106A
Perigee: 808.2 km
Apogee: 811.4 km
Inclination: 98.6 °
Period: 100.9 minutes
Semi major axis: 7180 km
RCS: Unknown
Launch date: December 19, 2018
Source: France (FR)
Launch site: FRENCH GUIANA (FRGUI)
aabbcc
Your satellite tracking list
Your tracking list is empty




NASA's NSSDC Master Catalog

Two Line Element Set (TLE):
1 43866U 18106A   21274.11904459 0.00000000  00000-0  00000-0 0    05
2 43866  98.6304 212.5811 0002295  28.4403 331.5595 14.26736316    08
Source of the keplerian elements: McCants